Aérodrome :







RETROUVEZ-NOUS SUR...

 
LOGIN :

S'inscrire | Disclaimer

   EN    FR    IT 

 









Légende :    VFR   VFR Marginal   IFR   IFR Intensif   IFR Très Intensif
Visi : 
Plafond : 
>= 8 km
>= 3000ft
5 à 8 km
1000 à 3000 ft
1500m à 5 km
500 à 1000 ft
800 à 1500m
200 à 500 ft
< 800m
< 200 ft
Symboles :   Orages  Brouillard  Fortes neiges  Fortes précipitations  Vent > 20 kt






- Altitude de l'aérodrome : 58 ft
- Code IATA : POS


TTPP - Piarco Int.

DERNIER METAR :
  • 062000Z 12013KT 9999 FEW022 30/22 Q1012 NOSIG

METARs EXPIRÉS :
  • 061900Z 12013KT 9999 FEW022 31/22 Q1012 NOSIG
  • 061800Z 11013KT 9999 SCT020 31/22 Q1013 NOSIG
  • 061700Z 12014KT 9999 BKN020 31/22 Q1014 NOSUG

TAF TAF TTPP
Valide du 06 à 18h jusqu'au 07 à 18h UTC


061600Z 0618/0718 09013KT 9999 SCT020
BECMG 0700/0702 10005KT FEW016
BECMG 0712/0714 10013KT SCT020



MET'MAP, la Météo Aéronautique d'un coup d'oeil ! - Copyright ORBIFLY Décembre 2007 - Disclaimer

ORBIFLY MET'MAP TEAM :

Programmation & Développement : Alexandra Zaïnal
Sur une idée originale de : Baudouin d'Aumeries
Assistance à la programmation : Marc-Olivier Méhu
Soutien technique & logistique : Manuel Goepfert

Contact : metmap@orbifly.com




SOURCES & CREDITS :

   NOAA